Flag for India Weather past 2 weeks in Chennai, Tamil Nadu, India

Now
84 °F

More clouds than sun.


Feels Like: 92 °F
Forecast: 80 / 90 °F
Wind: 10 mph from West

Location: Madras / Minambakkam

Current Time: Sep 16, 2014 at 11:10:55 AM

Latest Report: Sep 16, 2014 at 10:40 AM


Visibility: 3 mi

Pressure: 29.71 "Hg

Humidity: 74%

Dew point: 75 °F

Location of ChennaiLocation

Historic Weather in Chennai — Graph

°F

Chennai temperature yesterday

Maximum temperature yesterday: 93 °F (at 1:40 PM)
Minimum temperature yesterday: 73 °F (at 10:10 PM)
Average temperature yesterday: 84 °F

Past Weeks' High & Low Weather Summary

 TemperatureHumidityPressure
High99 °F (Sep 9, 4:10 PM)100% (Sep 3, 6:40 PM)29.83 "Hg (Sep 3, 6:40 PM)
Low73 °F (Sep 15, 10:10 PM)39% (Sep 9, 4:10 PM)29.53 "Hg (Sep 1, 2:10 PM)
Average85 °F74%29.71 "Hg
* Reported Sep 1 8:40 AM — Sep 16 9:10 AM, Chennai, Weather by CustomWeather, © 2014

Note: Actual official high and low records may vary slightly from our data, if they occured in-between our weather recording intervals... More about our weather records

Advertising

Chennai weather history for previous 24 hours

 ConditionsComfort  
Time TempWeatherWind HumidityBarometerVisibility
9:10 AM
Sep 16
81 °FDrizzle. More clouds than sun.9 mph84%29.71 "Hg2 mi
8:10 AM77 °FDrizzle. More clouds than sun.8 mph94%29.71 "Hg2 mi
7:40 AM77 °FDrizzle. More clouds than sun.12 mph94%29.71 "Hg2 mi
6:10 AM77 °FDrizzle. Mostly cloudy.3 mph94%29.68 "Hg2 mi
5:40 AM77 °FDrizzle. Mostly cloudy.3 mph94%29.68 "Hg3 mi
5:10 AM77 °FDrizzle. Mostly cloudy.3 mph94%29.65 "Hg3 mi
4:40 AM75 °FDrizzle. Mostly cloudy.6 mph94%29.65 "Hg3 mi
4:10 AM75 °FDrizzle. Mostly cloudy.5 mph94%29.62 "Hg3 mi
3:40 AM75 °FDrizzle. Mostly cloudy.5 mph94%29.62 "Hg3 mi
3:10 AM75 °FDrizzle. Mostly cloudy.7 mph94%29.62 "Hg3 mi
2:10 AM75 °FLight rain. Mostly cloudy.7 mph94%29.65 "Hg3 mi
1:40 AM75 °FLight rain. Mostly cloudy.8 mph94%29.65 "Hg3 mi
1:10 AM75 °FLight rain. Mostly cloudy.5 mph94%29.65 "Hg3 mi
12:40 AM75 °FLight rain. Mostly cloudy.5 mph94%N/A3 mi
11:10 PM
Sep 15
75 °FThunderstorms. Mostly cloudy.6 mph94%29.74 "Hg2 mi
10:40 PM73 °FThunderstorms. Mostly cloudy.7 mph100%29.74 "Hg2 mi
10:10 PM73 °FThunderstorms. Mostly cloudy.14 mph100%29.74 "Hg1 mi
8:40 PM81 °FPartly cloudy.12 mph89%29.71 "Hg4 mi
8:10 PM86 °FPartly cloudy.9 mph70%29.68 "Hg4 mi
7:40 PM86 °FPassing clouds.10 mph70%29.65 "Hg4 mi
7:10 PM86 °FPassing clouds.8 mph66%29.65 "Hg4 mi
6:10 PM91 °FScattered clouds.No wind56%29.59 "Hg4 mi
5:40 PM91 °FScattered clouds.No wind56%29.59 "Hg5 mi
5:10 PM91 °FScattered clouds.3 mph56%29.59 "Hg5 mi
4:40 PM93 °FScattered clouds.3 mph53%29.59 "Hg5 mi
4:10 PM93 °FScattered clouds.6 mph53%29.59 "Hg5 mi
3:40 PM93 °FScattered clouds.6 mph53%29.59 "Hg5 mi
3:10 PM93 °FScattered clouds.8 mph53%29.59 "Hg5 mi
2:40 PM93 °FScattered clouds.9 mph56%29.59 "Hg5 mi
1:40 PM93 °FScattered clouds.13 mph56%29.62 "Hg5 mi
1:10 PM91 °FScattered clouds.12 mph59%29.65 "Hg5 mi
12:40 PM91 °FScattered clouds.13 mph59%29.65 "Hg5 mi
12:10 PM90 °FScattered clouds.10 mph63%29.68 "Hg5 mi
11:10 AM88 °FScattered clouds.13 mph62%29.71 "Hg5 mi
Weather by CustomWeather, © 2014

See weather overviewHow to use our weather pages